Showing default

ASCENT, 51287

Orbit data source: Space-Track

ASCENT, 51287 is a payload satellite owned by AFRL/RV (US) in GEO that was launched on Tue, 07 Dec 2021 UTC via an ATLAS V 551 launch vehicle from the Air Force Eastern Test Range (AFETR). Payloads include a variety of satellites, spacecraft, and rockets equipped with specific instruments for various scientific and technological missions. These include communications satellites like Starlink; space stations such as the ISS; scientific satellites like the Hubble; Earth observation satellites from companies like Planet Labs, Umbra, and HawkEye 360; GPS; miniature CubeSats for education and research; and military/defense satellites.

Not visible in the next 10 days
ASCENT details
Identifier
51287, 2021-118E
Orbit
GEO
Last TLE update2 days ago
Origin
Flag of USAFRL/RV (US)
ManufacturerBlue Canyon
MissionOperational Defense Technology
Bus & MotorCUBESAT 12U, Unknown motor
Mass~25 kg wet, ~25 kg dry
Launch date (UTC)
2021-12-07 (3 years ago)
Launch vehicle
ATLAS V 551
Launch site
Air Force Eastern Test Range (AFETR)
Object type
Payload
Rocket body
Debris
Shape & HBRBox, 0.3 m
Radar Cross Section0.080 m², Large (>1 m²)

Expand to show TLE details & history

TLE from 2 days ago
0 ASCENT
1 51287U 21118E   24359.98351976  .00000111  00000-0  00000+0 0  9999
2 51287   2.7991  84.3611 0006085 132.3676 227.2770  1.01235429 10862
Epoch: 2024-12-24T23:36Z
Definitive object data (Epoch: 2024-12-24T23:36:16.107Z)
Latitude-0.00001°
Longitude-4.09958°
Altitude35,535.45 km
Speed3.083 km/s
True Right ascension05h 35m 48s
True Declination0° 00' 00"
Sunlit
Object was in daylight at TLE epoch
Visualization TLE readout
Latitude-1.03443°
Longitude-162.57418°
Altitude35,508.808 km
Speed3.085 km/s
Apparent Right ascension19h 26m 41s
Apparent Declination-6° 19' 40"
Sunlit
Object is in daylight
Visualization observer readout
Local Sidereal Time11:56:04
Azimuth80.038° E
Elevation-21.367°
Doppler factor1
Orbital elements
Apogee altitude35,545.164 km
Perigee altitude35,494.174 km
Semi-major axis41,897.806 km
Eccentricity0.0006085
Inclination2.7991°
RAAN84.3611°
Arg. of periapsis132.3676°
True anomaly227.2258°
Mean anomaly227.277°
Eccentric anomaly227.2514°
Mean motion0.25308 °/min
BSTARUnknown
Orbital period1422.48 mins
Loading historical data...
51287 neighbors
Authenticating...
Loading maneuver chart data...
Loading historical data...
Loading historical data...
Loading historical data...
Loading historical data...
Loading historical data...
Loading historical data...
Loading historical data...
Other satellites on launch #118 in the year 2021 (2021-12-07 UTC)

ASCENT Visibility forecast

Observer location: undefined°, undefined

ASCENT is not visible in the next 10 days
Span
Click to sort rows by Start time (UTC) header in descending order
Start Az.
Max El. time (UTC)
Max El. Az.
Max El.
End time (UTC)
End Az.
|